World > North America > United States > Pennsylvania > Colemanville

Hourly Colemanville, PA Regional Weather

Feedback E-mail the Weather

Quick WX

Colemanville, PA Weather Maps

°F °C°F °C
Colemanville Weather Map
UTC Time: 8/15/2022, 18:20
Your Time:

Colemanville, PA Regional Weather

Expires:202208151900;;091972
ASUS41 KPHI 151814
RWRPHI

REGIONAL WEATHER ROUNDUP
NATIONAL WEATHER SERVICE MOUNT HOLLY NJ
200 PM EDT MON AUG 15 2022

NOTE:  "FAIR" INDICATES FEW OR NO CLOUDS BELOW 12,000 FEET WITH NO
SIGNIFICANT WEATHER AND/OR OBSTRUCTIONS TO VISIBILITY.

 * = STATION DOES NOT REPORT PRECIPITATION (E.G. RAIN, SNOW, ETC.) 
        OR FOG.


PAZ043-044-047-054-055-060>062-066>071-151900-
EASTERN PENNSYLVANIA
  
CITY           SKY/WX    TMP DP  RH WIND       PRES   REMARKS
PHILADELPHIA   PTSUNNY   83  57  41 E12       29.98S                  
6HR MIN TEMP:  72; 6HR MAX TEMP:  83;                                

NORTH PHILA    MOSUNNY   84  56  38 SE12G17   29.98F                  
BLUE BELL*     MOSUNNY   82  55  39 SE8       29.99S                  
DOYLESTOWN     MOSUNNY   82  52  35 S7        29.97F                  
QUAKERTOWN*    MOSUNNY   82  54  36 VRB3      29.98S                  
PERKASIE*      FAIR      82  52  34 S3        29.99S                  
POTTSTOWN      SUNNY     79  54  41 CALM      29.99F                  
LANCASTER      CLOUDY    77  58  51 SE5       29.99F                  
COATESVILLE    MOSUNNY   77  61  57 CALM      30.01S                  
READING        CLOUDY    81  57  43 CALM      29.96F                  
6HR MIN TEMP:  67; 6HR MAX TEMP:  83;                                

ALLENTOWN      PTSUNNY   82  52  35 CALM      29.97F                  
6HR MIN TEMP:  66; 6HR MAX TEMP:  84;                                

QN CITY/ALNTWN FAIR      82  54  36 E8        29.98F                  
MOUNT POCONO   MOSUNNY   76  50  40 VRB3      30.03F                  
6HR MIN TEMP:  63; 6HR MAX TEMP:  77;                                

HAZLETON       MOSUNNY   77  54  44 CALM      30.05F                  
LEHIGHTON      MOCLDY    81  52  36 CALM      29.98F                  
WILKES BARRE   MOSUNNY   80  56  43 N6        29.99F                  

$$

SKY/WX - Weather  TMP - Temperature  DP - Dew Point  RH - Humidity
WIND - Wind Direction/Speed PRES - Barometric Pressure VSB - Visibility
WCI - Wind Chill Index E13G22 Wind - East Wind 13 mph/Gusts of 22 mph

Trending Headlines

Colemanville Radar Loop



Colemanville Quick Facts


National Two Day Weather Forecast


E-mail the Colemanville Weather Forecast

Voice your opinion or tell us about page issues...